Regional Weather Roundup
Issued by NWS

Home | Current Version | Previous Version | Text Only | Print | Product List | Glossary On
Versions: 1 2 3 4 5 6 7 8 9 10 11 12 13 14 15 16 17 18 19 20 21 22 23 24 25 26 27 28 29 30 31 32 33 34 35 36 37 38 39 40 41 42 43 44 45 46 47 48 49 50
000
ASUS45 KSLC 031910
RWRUT

UTAH REGIONAL WEATHER ROUNDUP
NATIONAL WEATHER SERVICE SALT LAKE CITY UT
100 PM MDT SUN MAY 03 2015

UTZ001>011-023>025-032000-

NORTHERN UTAH

CITY           SKY/WX    TMP DP  RH WIND       PRES   REMARKS
BRIGHAM CITY   SUNNY     73  33  23 CALM      29.91F
HILL AFB       MOSUNNY   75  35  24 W8        29.91F
LOGAN          SUNNY     73  42  32 N8        29.92F
OGDEN          SUNNY     76  37  24 W10       29.89F
PROVO AIRPORT  MOSUNNY   73  36  25 SE5       29.92F
SALT LAKE CITY PTSUNNY   76  32  20 S15       29.88F
VERNAL         SUNNY     73  32  22 MISG      29.95F
WENDOVER       PTSUNNY   77  34  20 N17       29.89F
HEBER CITY     MOSUNNY   73  28  19 SW13      29.95F
WEST JORDAN    PTSUNNY   70  41  35 SE10      29.91F

$$

UTZ012>022-026-027-032000-

SOUTHERN/CENTRAL UTAH

CITY           SKY/WX    TMP DP  RH WIND       PRES   REMARKS
BLANDING       MOSUNNY   69  33  26 SW13      30.12F
BRYCE CANYON   LGT RAIN  50  36  58 NE15      30.16R
CEDAR CITY     MOSUNNY   71  31  22 S12G17    30.01F
DELTA          MOSUNNY   76  25  15 SW15G28   29.93S
HANKSVILLE     MOSUNNY   79  28  15 S10G16    29.95F
MILFORD        MOSUNNY   78  27  15 SW17G36   29.95F
MOAB/CYNLANDS  SUNNY     77  31  18 S18G26    29.93F
PRICE          CLOUDY    65  28  24 MISG      30.01R
ST GEORGE      PTCLDY    75  37  25 SE12      29.92F
KANAB          MOSUNNY   72  32  23 S6        30.04F

$$

REGIONAL REPORTS     COLORADO/ARIZONA

CITY           SKY/WX    TMP DP  RH WIND       PRES   REMARKS
CRAIG, CO      MOSUNNY   66  34  30 NW9       30.01F
GRAND JUNCTION PTSUNNY   70  33  25 CALM      29.96F
RIFLE          MOSUNNY   75  30  19 W17       29.97F
MONTROSE       PTSUNNY   71  28  20 VRB7      30.03F
CORTEZ         MOSUNNY   69  35  28 SE8       30.07F
PAGE, AZ       PTSUNNY   77  32  19 N13       29.98F
GRAND CANYON   LGT RAIN  55  39  54 SE10G17   30.11F
KINGMAN        SUNNY     83  29  14 SE17G25   29.93F
FLAGSTAFF      MOSUNNY   64  35  34 S17G24    30.12F

$$

REGIONAL REPORTS    NEVADA/IDAHO/WYOMING

CITY           SKY/WX    TMP DP  RH WIND       PRES   REMARKS
LAS VEGAS, NV  MOSUNNY   86  34  15 SE13      29.80F
ELY            PTSUNNY   69  23  17 SW16G22   30.00F
ELKO           MOSUNNY   75  33  21 SW9       29.91F
POCATELLO, ID  MOSUNNY   73  32  22 VRB3G18   29.93F
BURLEY         SUNNY     72  36  26 VRB5      29.89F
EVANSTON, WY   PTSUNNY   58  43  57 N8        30.04F
ROCK SPRINGS   SUNNY     63  35  35 W9        30.03F
KEMMERER       PTSUNNY   59  28  31 SW21      30.06S

$$



USA.gov is the U.S. government's official web portal to all federal, state and local government web resources and services.